Regional Weather Roundup
Issued by NWS Goodland, KS

Home | Current Version | Previous Version | Graphics & Text | Print | Product List | Glossary On
Versions: 1 2 3 4 5 6 7 8 9 10 11 12 13 14 15 16 17 18 19 20 21 22 23 24 25 26 27 28 29 30 31 32 33 34 35 36 37 38 39 40 41 42 43 44 45 46 47 48 49 50
000
ASUS43 KGLD 221908
RWRGLD

GOODLAND FORECAST AREA HOURLY WEATHER ROUNDUP
NATIONAL WEATHER SERVICE GOODLAND KS
100 PM MDT SAT APR 22 2017

...OFFICIAL OBSERVATIONS...

CITY           SKY/WX    TMP DP  RH WIND       PRES   REMARKS
GOODLAND KS    MOSUNNY   53  33  46 N8        30.29F
HILL CITY KS   MOSUNNY   59  32  36 N9        30.28F
IMPERIAL NEB   SUNNY     56  33  42 VRB5      30.30F
MCCOOK NEB     MOSUNNY   58  32  37 CALM      30.28F
AKRON CO       CLOUDY    49  33  54 NW5       30.31S
BURLINGTON CO  NOT AVBL
LIMON CO       PTSUNNY   48  32  53 S6        30.30F
$$

...UNOFFICIAL OBSERVATIONS...

CITY           SKY/WX    TMP DP  RH WIND       PRES   REMARKS
LENORA KS        N/A     57  32  39 MISG        N/A
NORTON KS      PTSUNNY   57  27  30 N10       30.27F
SHARON SPRINGS   N/A     52  36  55 N7          N/A
TRENTON NEB      N/A     57  32  39 CALM        N/A
KIT CARSON CO    N/A     49  33  55 CALM        N/A
YUMA CO        PTSUNNY   50  34  53 CALM      30.30F
$$



USA.gov is the U.S. government's official web portal to all federal, state and local government web resources and services.